Regional Weather Roundup
Issued by NWS

Home | Current Version | Previous Version | Text Only | Print | Product List | Glossary On
Versions: 1 2 3 4 5 6 7 8 9 10 11 12 13 14 15 16 17 18 19 20 21 22 23 24 25 26 27 28 29 30 31 32 33 34 35 36 37 38 39 40 41 42 43 44 45 46 47 48 49 50
000
ASUS43 KTOP 251608
RWRKS

WEATHER ROUNDUP FOR KANSAS
NATIONAL WEATHER SERVICE GOODLAND KS
1100 AM CDT TUE APR 25 2017

NOTE:  "FAIR" INDICATES FEW OR NO CLOUDS BELOW 12,000 FEET WITH NO
SIGNIFICANT WEATHER AND/OR OBSTRUCTIONS TO VISIBILITY.

KSZ001>006-013>018-027>032-041>047-251700-
NORTHWEST KANSAS

CITY           SKY/WX    TMP DP  RH WIND       PRES   REMARKS
GOODLAND       CLOUDY    53  43  68 NE13      29.56R
HAYS           CLOUDY    52  44  74 N21G26    29.48R
HILL CITY      CLOUDY    54  44  69 N21G29    29.50F
RUSSELL        CLOUDY    53  44  71 N23       29.46R
$$

KSZ061>065-074>080-084>089-251700-
SOUTHWEST KANSAS

CITY           SKY/WX    TMP DP  RH WIND       PRES   REMARKS
DODGE CITY     PTSUNNY   57  46  66 N22G29    29.47R
ELKHART          N/A     51  40  66 N16         N/A
GARDEN CITY    CLOUDY    52  44  74 N18       29.51R
GREAT BEND     CLOUDY    59  51  75 N14       29.45R
PRATT          PTSUNNY   62  51  66 NW15G21   29.42R
$$

KSZ066>073-081>083-090>101-251700-
SOUTHEAST KANSAS

CITY           SKY/WX    TMP DP  RH WIND       PRES   REMARKS
CHANUTE        SUNNY     71  54  54 S24G33    29.41F
COFFEYVILLE    SUNNY     71  56  58 S16G30    29.42F
HUTCHINSON     CLOUDY    66  54  65 W5        29.39R
MEDICINE LODGE   N/A     70  54  56 VRB7      29.38R
NEWTON         MOSUNNY   67  56  67 S12       29.38R
PARSONS        SUNNY     70  54  56 S18G31    29.43F
WICHITA INTL   MOSUNNY   70  57  63 S15       29.35F
WICHITA JABRA  SUNNY     69  56  62 S12G21    29.36S
WICHITA MCCONL SUNNY     70  55  58 S12       29.35F
WINFIELD       SUNNY     70  57  63 S16       29.38F
$$

KSZ007>012-019>026-033>040-048>060-102>105-251700-
NORTHEAST KANSAS

CITY           SKY/WX    TMP DP  RH WIND       PRES   REMARKS
CONCORDIA      CLOUDY    56  49  77 N14       29.45R
EMPORIA        CLOUDY    67  54  63 S17G24    29.39R
LAWRENCE       PTSUNNY   69  52  54 S16G22    29.42F
MANHATTAN      CLOUDY    68  53  58 S6        29.39S
MARYSVILLE     CLOUDY    64  52  63 CALM      29.42S
OLATHE IND     PTSUNNY   68  51  54 S16G22    29.44F
OLATHE EXE     CLOUDY    66  52  60 S17       29.44S
SALINA         CLOUDY    66  53  63 NW10      29.42R
TOPEKA BILLARD MOSUNNY   69  54  58 S12       29.40F
TOPEKA FORBES  CLOUDY    70  53  54 S14       29.40F
$$



USA.gov is the U.S. government's official web portal to all federal, state and local government web resources and services.